Tracking 20241 objects as of 25-Jan-2020
HD Live streaming from Space Station
objects crossing your sky now

DELTA 2 R/B(1)

Track DELTA 2 R/B(1) now!
10-day predictions


NORAD ID: 22097
Int'l Code: 1992-057B
Perigee: 1,775.3 km
Apogee: 2,645.8 km
Inclination: 25.2 °
Period: 131.9 minutes
Semi major axis: 8581 km
RCS: 10.6891 m2 (large)
Launch date: August 31, 1992
Source: United States (US)
Launch site: AIR FORCE EASTERN TEST RANGE (AFETR)

Note: This is a ROCKET BODY
aabbcc
Your satellite tracking list
Your tracking list is empty




NASA's NSSDC Master Catalog

Two Line Element Set (TLE):
1 22097U 92057B   20024.86005390  .00000082  00000-0  42249-3 0  9996
2 22097  25.1951 199.6318 0507216 254.3615 252.9549 10.92078392 94391
Source of the keplerian elements: AFSPC